CW2377 Weather Reports


Display with metric or nautical units.
time (UTC)temp
F
wind
direction
speed
MPH
gust
MPH
rain 1hr
in
rain 24hr
in
rain mn
in
humidity
%
barometer
mb
20260904060704 76 120 0.0 0.0 0.00 0.09 0.00 91 1012.9
20260904060204 76 120 0.0 0.0 0.00 0.09 0.00 91 1013.0
20260904055704 76 120 0.0 0.0 0.00 0.09 0.00 91 1013.0
20260904054704 76 120 0.0 0.0 0.00 0.09 0.00 91 1013.3
20260904054204 75 120 0.0 0.0 0.00 0.09 0.00 91 1013.4
20260904053704 75 120 0.0 0.0 0.00 0.09 0.00 92 1013.4
20260904053203 75 120 0.0 0.0 0.00 0.09 0.00 90 1013.5
20260904052704 75 120 0.0 0.0 0.00 0.09 0.00 90 1013.5
20260904052204 76 120 0.0 0.0 0.00 0.09 0.00 91 1013.5
20260904051704 76 120 0.0 0.0 0.00 0.09 0.00 91 1013.5
20260904051203 76 120 0.0 0.0 0.00 0.09 0.00 91 1013.5
20260904050703 76 120 0.0 0.0 0.00 0.09 0.00 91 1013.4
20260904050204 76 120 0.0 0.0 0.00 0.09 0.00 91 1013.3
20260904045203 76 120 0.0 0.0 0.00 0.09 0.09 90 1013.4
20260904044704 76 120 0.0 0.0 0.00 0.09 0.09 90 1013.3
20260904044204 76 120 0.0 0.0 0.00 0.09 0.09 90 1013.3
20260904043704 76 120 0.0 0.0 0.00 0.09 0.09 90 1013.3
20260904043203 76 120 0.0 0.0 0.00 0.09 0.09 90 1013.4
20260904042204 76 120 0.0 0.0 0.00 0.09 0.09 89 1013.3
20260904041703 76 120 0.0 0.0 0.00 0.09 0.09 89 1013.3
20260904040704 76 120 0.0 0.0 0.00 0.09 0.09 89 1013.4
20260904035204 76 120 0.0 0.0 0.00 0.09 0.09 88 1013.6
20260904034703 76 120 0.0 0.0 0.00 0.09 0.09 88 1013.7
20260904034204 76 120 0.0 0.0 0.00 0.09 0.09 87 1013.8
20260904033204 76 120 0.0 0.0 0.00 0.09 0.09 86 1013.7
20260904032704 76 120 0.0 0.0 0.00 0.09 0.09 86 1013.7
20260904032204 76 120 0.0 0.0 0.00 0.09 0.09 86 1013.6
20260904031704 76 120 0.0 0.0 0.00 0.09 0.09 87 1013.7
20260904031204 76 120 0.0 0.0 0.00 0.09 0.09 87 1013.7
20260904030703 76 120 0.0 0.0 0.00 0.09 0.09 87 1013.7
20260904030204 76 120 0.0 0.0 0.00 0.09 0.09 86 1013.7
20260904024204 77 120 0.0 0.0 0.00 0.09 0.09 84 1013.8
20260904023704 77 120 0.0 0.0 0.00 0.09 0.09 85 1013.8
20260904022704 77 120 0.0 0.0 0.00 0.09 0.09 84 1013.8
20260904022204 77 120 0.0 0.0 0.00 0.09 0.09 84 1013.7
20260904021705 77 120 0.0 0.0 0.00 0.09 0.09 84 1013.6
20260904021204 77 120 0.0 0.0 0.00 0.09 0.09 84 1013.4
20260904020704 77 120 0.0 0.0 0.00 0.09 0.09 84 1013.4
20260904020204 77 120 0.0 0.0 0.00 0.09 0.09 82 1013.4
20260904015704 77 120 0.0 0.0 0.00 0.09 0.09 82 1013.4
20260904015204 77 120 0.0 0.0 0.00 0.09 0.09 82 1013.4
20260904014204 78 120 0.0 0.0 0.00 0.09 0.09 81 1013.3
20260904013703 78 120 0.0 0.0 0.00 0.09 0.09 80 1013.1
20260904013204 78 120 0.0 0.0 0.00 0.09 0.09 81 1013.0
20260904012704 78 120 0.0 0.0 0.00 0.09 0.09 81 1013.0
20260904011203 79 120 0.0 0.0 0.00 0.09 0.09 78 1012.8
20260904010703 79 120 0.0 0.0 0.00 0.09 0.09 76 1012.8
20260904010204 79 120 0.0 0.0 0.00 0.09 0.09 76 1012.9
20260904005703 79 120 0.0 0.0 0.00 0.09 0.09 77 1012.8
20260904005204 79 120 0.0 0.0 0.00 0.09 0.09 75 1012.7
20260904004703 80 120 0.0 0.0 0.00 0.09 0.09 74 1012.6
20260904004203 80 120 0.0 0.0 0.00 0.09 0.09 72 1012.4
20260904003203 81 120 0.0 0.0 0.00 0.09 0.09 70 1012.1
20260904002704 81 120 0.0 0.0 0.00 0.09 0.09 70 1012.1
20260904002204 81 120 0.0 0.0 0.00 0.09 0.09 69 1012.0
20260904001703 81 120 0.0 0.0 0.00 0.09 0.09 70 1012.0
20260904001204 81 120 0.0 0.0 0.00 0.09 0.09 68 1012.0
20260904000703 81 120 0.0 0.0 0.00 0.09 0.09 68 1012.0
20260904000204 82 120 0.0 0.0 0.00 0.09 0.09 68 1012.0
20260903235203 82 120 0.0 0.0 0.00 0.09 0.09 68 1012.2
20260903234703 82 120 0.0 0.0 0.00 0.09 0.09 67 1012.2
20260903234204 83 120 0.0 0.0 0.00 0.09 0.09 67 1012.1
20260903233703 83 120 0.0 0.0 0.00 0.09 0.09 66 1012.1
20260903233203 83 120 0.0 0.0 0.00 0.09 0.09 65 1012.2
20260903232703 83 120 0.0 0.0 0.00 0.09 0.09 66 1012.2
20260903231703 83 120 0.0 0.0 0.00 0.09 0.09 67 1012.2
20260903231203 84 120 0.0 0.0 0.00 0.09 0.09 65 1012.2
20260903225703 84 120 0.0 0.0 0.00 0.09 0.09 64 1012.1
20260903225203 84 120 0.0 0.0 0.00 0.09 0.09 65 1012.2
20260903224703 84 120 0.0 0.0 0.00 0.09 0.09 68 1012.2
20260903223704 85 120 0.0 0.0 0.00 0.09 0.09 69 1012.3
20260903223204 85 120 0.0 0.0 0.00 0.09 0.09 69 1012.3
20260903222203 85 120 0.0 0.0 0.00 0.09 0.09 68 1012.4
20260903221703 85 120 0.0 0.0 0.00 0.09 0.09 68 1012.4
20260903221204 86 120 0.0 0.0 0.00 0.09 0.09 66 1012.5
20260903220204 86 120 0.0 0.0 0.00 0.09 0.09 66 1012.5
20260903215703 86 120 0.0 0.0 0.00 0.09 0.09 67 1012.6
20260903215204 86 120 0.0 0.0 0.00 0.09 0.09 66 1012.6
20260903214704 86 120 0.0 0.0 0.00 0.09 0.09 67 1012.6
20260903214203 86 120 0.0 0.0 0.00 0.09 0.09 66 1012.6
20260903213703 86 120 0.0 0.0 0.00 0.09 0.09 66 1012.6
20260903212203 86 120 0.0 0.0 0.00 0.09 0.09 65 1012.7
20260903211204 86 120 0.0 0.0 0.00 0.09 0.09 64 1012.7
20260903210204 87 120 0.0 0.0 0.00 0.09 0.09 62 1012.9
20260903205704 87 120 0.0 0.0 0.00 0.09 0.09 63 1012.9
20260903205204 87 120 0.0 0.0 0.00 0.09 0.09 62 1013.0
20260903203704 87 120 0.0 0.0 0.00 0.09 0.09 63 1013.0
20260903203204 88 120 0.0 0.0 0.00 0.09 0.09 63 1013.1
20260903202204 87 120 0.0 0.0 0.00 0.09 0.09 65 1013.2
20260903201703 87 120 0.0 0.0 0.00 0.09 0.09 64 1013.2
20260903201204 86 120 0.0 0.0 0.00 0.09 0.09 65 1013.2
20260903200704 87 120 0.0 0.0 0.00 0.09 0.09 64 1013.2
20260903200203 86 120 0.0 0.0 0.00 0.09 0.09 64 1013.3
20260903195703 87 120 0.0 0.0 0.00 0.09 0.09 64 1013.3
20260903195204 87 120 0.0 0.0 0.00 0.09 0.09 64 1013.4
20260903194704 87 120 0.0 0.0 0.00 0.09 0.09 64 1013.5
20260903194204 87 120 0.0 0.0 0.00 0.09 0.09 63 1013.6
20260903193703 86 120 0.0 0.0 0.00 0.09 0.09 65 1013.6
20260903193203 85 120 0.0 0.0 0.00 0.09 0.09 66 1013.6
20260903192703 85 120 0.0 0.0 0.00 0.09 0.09 68 1013.4
20260903192203 84 120 0.0 0.0 0.00 0.09 0.09 68 1013.3
20260903191704 84 120 0.0 0.0 0.00 0.09 0.09 69 1013.3
20260903191203 84 120 0.0 0.0 0.00 0.09 0.09 66 1013.4
20260903190203 83 120 0.0 0.0 0.00 0.09 0.09 70 1013.4
20260903185703 83 120 0.0 0.0 0.00 0.09 0.09 71 1013.4
20260903185204 83 120 0.0 0.0 0.00 0.09 0.09 71 1013.5
20260903184704 82 120 0.0 0.0 0.00 0.09 0.09 73 1013.5
20260903184203 82 120 0.0 0.0 0.00 0.09 0.09 72 1013.7
20260903183203 82 120 0.0 0.0 0.00 0.09 0.09 72 1013.7
20260903182704 82 120 0.0 0.0 0.00 0.09 0.09 72 1013.7
20260903182203 82 120 0.0 0.0 0.00 0.09 0.09 74 1013.8
20260903181704 81 120 0.0 0.0 0.00 0.09 0.09 73 1013.9
20260903181204 82 120 0.0 0.0 0.00 0.09 0.09 72 1014.0
20260903180703 81 120 0.0 0.0 0.00 0.09 0.09 74 1014.0
20260903180204 81 120 0.0 0.0 0.00 0.09 0.09 74 1014.0
20260903175703 80 120 0.0 0.0 0.00 0.09 0.09 76 1014.2
20260903175204 80 120 0.0 0.0 0.00 0.09 0.09 79 1014.3
20260903174703 79 120 0.0 0.0 0.00 0.09 0.09 82 1014.4
20260903174204 79 120 0.0 0.0 0.00 0.09 0.09 82 1014.6
20260903173704 78 120 0.0 0.0 0.00 0.09 0.09 81 1014.8
20260903173203 78 120 0.0 0.0 0.00 0.09 0.09 82 1014.7
20260903172704 78 120 0.0 0.0 0.00 0.09 0.09 84 1014.6
20260903172203 78 120 0.0 0.0 0.00 0.09 0.09 85 1014.6
20260903171703 77 120 0.0 0.0 0.00 0.09 0.09 89 1014.7
20260903171204 76 120 0.0 0.0 0.00 0.09 0.09 88 1014.8
20260903170704 75 120 0.0 0.0 0.00 0.09 0.09 88 1014.8
20260903170203 75 120 0.0 0.0 0.00 0.09 0.09 87 1015.0
20260903165704 75 120 0.0 0.0 0.03 0.09 0.09 87 1015.2
20260903165204 75 120 0.0 0.0 0.04 0.09 0.09 88 1015.4
20260903164703 75 120 0.0 0.0 0.05 0.09 0.09 88 1015.4
20260903163204 76 120 0.0 0.0 0.08 0.09 0.09 88 1015.4
20260903162204 76 120 0.0 0.0 0.09 0.09 0.09 87 1015.2
20260903161704 76 120 0.0 0.0 0.09 0.09 0.09 86 1015.2
20260903161203 76 120 0.0 0.0 0.09 0.09 0.09 85 1015.2
20260903160205 77 120 0.0 0.0 0.09 0.09 0.09 84 1015.2
20260903155203 79 120 0.0 0.0 0.05 0.05 0.05 83 1015.5
20260903154704 79 120 0.0 0.0 0.04 0.04 0.04 82 1015.1
20260903154205 80 120 0.0 0.0 0.04 0.04 0.04 81 1014.7
20260903153703 81 120 0.0 0.0 0.03 0.03 0.03 78 1014.8
20260903153203 81 120 0.0 0.0 0.01 0.01 0.01 75 1014.9
20260903152704 82 120 0.0 0.0 0.00 0.00 0.00 73 1014.7
20260903152203 82 120 0.0 0.0 0.00 0.00 0.00 72 1014.4
20260903151703 82 120 0.0 0.0 0.00 0.00 0.00 72 1014.3
20260903151203 83 120 0.0 0.0 0.00 0.00 0.00 72 1014.4
20260903150703 83 120 0.0 0.0 0.00 0.00 0.00 75 1014.3
20260903145703 84 120 0.0 0.0 0.00 0.00 0.00 74 1013.5
20260903145204 84 120 0.0 0.0 0.00 0.00 0.00 72 1013.4
20260903144703 84 120 0.0 0.0 0.00 0.00 0.00 72 1013.5
20260903144203 84 120 0.0 0.0 0.00 0.00 0.00 72 1013.5
20260903143703 84 120 0.0 0.0 0.00 0.00 0.00 72 1013.4
20260903143203 84 120 0.0 0.0 0.00 0.00 0.00 72 1013.4
20260903142703 84 120 0.0 0.0 0.00 0.00 0.00 70 1013.4
20260903142203 84 120 0.0 0.0 0.00 0.00 0.00 70 1013.4
20260903141704 84 120 0.0 0.0 0.00 0.00 0.00 70 1013.4
20260903141203 83 120 0.0 0.0 0.00 0.00 0.00 69 1013.4
20260903140703 83 120 0.0 0.0 0.00 0.00 0.00 71 1013.4
20260903140203 83 120 0.0 0.0 0.00 0.00 0.00 69 1013.3
20260903135703 83 120 0.0 0.0 0.00 0.00 0.00 70 1013.3
20260903134704 83 120 0.0 0.0 0.00 0.00 0.00 69 1013.2
20260903134203 83 120 0.0 0.0 0.00 0.00 0.00 69 1013.2
20260903133203 82 120 0.0 0.0 0.00 0.00 0.00 71 1013.1
20260903132203 82 120 0.0 0.0 0.00 0.00 0.00 72 1013.1
20260903131708 81 120 0.0 0.0 0.00 0.00 0.00 73 1013.0
20260903131203 81 120 0.0 0.0 0.00 0.00 0.00 74 1013.0
20260903130703 81 120 0.0 0.0 0.00 0.00 0.00 75 1013.2
20260903130203 80 120 0.0 0.0 0.00 0.00 0.00 75 1013.1
20260903125703 80 120 0.0 0.0 0.00 0.00 0.00 75 1013.1
20260903124703 80 120 0.0 0.0 0.00 0.00 0.00 77 1013.2
20260903124204 80 120 0.0 0.0 0.00 0.00 0.00 77 1013.2
20260903123703 79 120 0.0 0.0 0.00 0.00 0.00 78 1013.3
20260903123203 79 120 0.0 0.0 0.00 0.00 0.00 78 1013.3
20260903122703 79 120 0.0 0.0 0.00 0.00 0.00 79 1013.3
20260903122204 79 120 0.0 0.0 0.00 0.00 0.00 79 1013.3
20260903121204 78 120 0.0 0.0 0.00 0.00 0.00 81 1013.3
20260903120204 78 120 0.0 0.0 0.00 0.00 0.00 82 1013.3
20260903115703 78 120 0.0 0.0 0.00 0.00 0.00 82 1013.3
20260903115204 78 120 0.0 0.0 0.00 0.00 0.00 82 1013.3
20260903114703 78 120 0.0 0.0 0.00 0.00 0.00 83 1013.2
20260903114204 78 120 0.0 0.0 0.00 0.00 0.00 82 1013.3
20260903113703 78 120 0.0 0.0 0.00 0.00 0.00 83 1013.3
20260903113203 78 120 0.0 0.0 0.00 0.00 0.00 83 1013.3
20260903112204 78 120 0.0 0.0 0.00 0.00 0.00 82 1013.3
20260903111703 78 120 0.0 0.0 0.00 0.00 0.00 82 1013.2
20260903110704 78 120 0.0 0.0 0.00 0.00 0.00 83 1013.2
20260903105204 78 120 0.0 0.0 0.00 0.00 0.00 84 1013.2
20260903104704 78 120 0.0 0.0 0.00 0.00 0.00 85 1013.1
20260903104203 78 120 0.0 0.0 0.00 0.00 0.00 86 1013.2
20260903103703 78 120 0.0 0.0 0.00 0.00 0.00 85 1013.1
20260903103204 78 120 0.0 0.0 0.00 0.00 0.00 86 1013.1
20260903102704 78 120 0.0 0.0 0.00 0.00 0.00 86 1013.1
20260903102204 78 120 0.0 0.0 0.00 0.00 0.00 86 1013.0
20260903101703 78 120 0.0 0.0 0.00 0.00 0.00 87 1013.1
20260903100703 78 120 0.0 0.0 0.00 0.00 0.00 87 1013.1
20260903100204 78 120 0.0 0.0 0.00 0.00 0.00 88 1013.1
20260903095204 78 120 0.0 0.0 0.00 0.00 0.00 87 1013.2
20260903094203 78 120 0.0 0.0 0.00 0.00 0.00 86 1013.2
20260903093704 78 120 0.0 0.0 0.00 0.00 0.00 86 1013.2
20260903093204 78 120 0.0 0.0 0.00 0.00 0.00 86 1013.1
20260903092704 78 120 0.0 0.0 0.00 0.00 0.00 86 1013.1
20260903092204 78 120 0.0 0.0 0.00 0.00 0.00 86 1013.1
20260903091703 78 120 0.0 0.0 0.00 0.00 0.00 86 1013.1
20260903091204 78 120 0.0 0.0 0.00 0.00 0.00 86 1013.0
20260903090704 78 120 0.0 0.0 0.00 0.00 0.00 85 1013.1
20260903090203 78 120 0.0 0.0 0.00 0.00 0.00 85 1013.2
20260903085204 79 120 0.0 0.0 0.00 0.00 0.00 84 1013.2
20260903084704 79 120 0.0 0.0 0.00 0.00 0.00 84 1013.1
20260903083704 79 120 0.0 0.0 0.00 0.00 0.00 83 1013.1
20260903082704 79 120 0.0 0.0 0.00 0.00 0.00 82 1013.1
20260903082204 80 120 0.0 0.0 0.00 0.00 0.00 81 1013.1
20260903081704 80 120 0.0 0.0 0.00 0.00 0.00 81 1013.1
20260903080704 80 120 0.0 0.0 0.00 0.00 0.00 80 1013.0
20260903080203 80 120 0.0 0.0 0.00 0.00 0.00 79 1012.9
20260903075703 80 120 0.0 0.0 0.00 0.00 0.00 80 1012.9
20260903075203 80 120 0.0 0.0 0.00 0.00 0.00 80 1012.9
20260903074705 80 120 0.0 0.0 0.00 0.00 0.00 81 1012.9
20260903074203 79 120 0.0 0.0 0.00 0.00 0.00 82 1012.9
20260903073704 79 120 0.0 0.0 0.00 0.00 0.00 83 1012.8
20260903073204 79 120 0.0 0.0 0.00 0.00 0.00 84 1012.8
20260903072703 79 120 0.0 0.0 0.00 0.00 0.00 85 1012.9
20260903072203 79 120 0.0 0.0 0.00 0.00 0.00 85 1012.9
20260903071203 79 120 0.0 0.0 0.00 0.00 0.00 85 1012.9
20260903070704 79 120 0.0 0.0 0.00 0.00 0.00 84 1012.9
20260903070203 79 120 0.0 0.0 0.00 0.00 0.00 84 1012.9
20260903065703 79 120 0.0 0.0 0.00 0.00 0.00 84 1012.8
20260903065204 79 120 0.0 0.0 0.00 0.00 0.00 84 1013.0
20260903064703 80 120 0.0 0.0 0.00 0.00 0.00 83 1013.0
20260903064203 80 120 0.0 0.0 0.00 0.00 0.00 83 1013.0
20260903063703 80 120 0.0 0.0 0.00 0.00 0.00 83 1013.0
20260903063204 80 120 0.0 0.0 0.00 0.00 0.00 83 1013.0
20260903062704 80 120 0.0 0.0 0.00 0.00 0.00 83 1013.1
20260903061204 80 120 0.0 0.0 0.00 0.00 0.00 83 1013.1